www.pogodaiklimat.ru
ПОГОДА в Питсфилде
Время
(UTC), дата
12:54 20.11
13:41 20.11
13:49 20.11
13:54 20.11
13:57 20.11
14:16 20.11
14:23 20.11
14:54 20.11
15:54 20.11
16:29 20.11
16:54 20.11
17:08 20.11
17:39 20.11
17:54 20.11
18:19 20.11
18:54 20.11
19:54 20.11
20:54 20.11
21:54 20.11
22:54 20.11
23:30 20.11
23:54 20.11
00:54 20.11
01:03 20.11
01:14 20.11
01:21 20.11
01:54 20.11
02:54 20.11
03:54 20.11
04:54 21.11
05:54 21.11
06:54 21.11
07:14 21.11
07:54 21.11
08:54 21.11
09:40 21.11
09:54 21.11
10:15 21.11
10:32 21.11
10:54 21.11
11:54 21.11
12:54 21.11
13:54 21.11
14:54 21.11
15:54 21.11
16:54 21.11
17:54 21.11
18:54 21.11
Ветер
(напр.,м/с)
Видим. Явления Облачность Т
(С)
Тd
(С)
f
(%)
Тe
(С)
Тes
(С)
Комфортность P
(гПа)
Po
(гПа)
Тmin
(С)
Tmax
(С)
R
(мм)
R24
(мм)
S
(см)
СЗ 3 5 км неопределенные осадки, дымка 10/10 240 м +1.1 -1.1 85 -4 -4 1013.1 969.5
З 3 3 км слабый снег, дымка 10/10 270 м +0.6 -1.1 88 -4 -4 969.8
СЗ 3 5 км слабый снег, дымка 10/10 240 м +1.0 -1.0 86 -4 -4 969.8
СЗ 3 6 км слабый снег, дымка 10/10 420 м +1.1 -1.1 85 -3 -3 1013.5 969.8
З 3 10 км слабый снег, дымка 10/10 270 м +1.1 -1.1 85 -3 -3 969.8
СЗ 2 16 км 10/10 390 м +1.1 -1.1 85 -3 -3 969.8
СЗ 4 16 км 10/10 330 м +1.7 -1.1 82 -3 -3 969.8
СЗ 5 16 км 10/10 450 м +1.1 -1.7 82 -5 -5 1013.6 969.8
нст 2 16 км 10/10 570 м +1.7 -1.7 78 -2 -2 1013.5 969.8
СЗ 3 13 км 10/10 360 м +1.1 -1.7 82 -3 -3 969.8
СЗ 4 10 км слабый снег 10/10 420 м +1.1 -1.7 82 -4 -4 1013.6 969.8 +0.6 +1.7
С 3 4 км слабый снег 10/10 420 м +1.1 -1.7 82 -3 -3 969.8
нст 3 5 км слабый снег 10/10 300 м +1.1 -1.7 82 -4 -4 969.8
С 4 5 км слабый снег 10/10 450 м +1.1 -1.7 82 -4 -4 1013.7 970.1
С 2 10 км слабый снег 10/10 390 м +1.1 -1.7 82 -3 -3 970.1
нст 3 8 км слабый снег 10/10 360 м +1.1 -1.7 82 -3 -3 1014.2 970.4
СЗ 1 11 км слабый снег 10/10 360 м +1.1 -1.7 82 -2 -2 1014.9 971.1
СЗ 3 16 км 10/8 360 м
[средняя]
+0.6 -2.2 81 -4 -4 1015.5 971.7
СЗ 4 16 км 10/10 360 м +0.6 -2.2 81 -5 -5 1016.1 972.4
СЗ 3 13 км 10/10 390 м +0.6 -1.7 85 -4 -4 1016.9 973.0 +0.6 +1.1
СЗ 3 16 км 10/10 360 м +1.1 -2.2 79 -4 -4 973.3
С 4 16 км 10/10 420 м +1.1 -2.2 79 -4 -4 1017.4 973.3
СЗ 4 16 км 10/10 420 м +1.1 -2.2 79 -5 -5 1017.9 974.0
СЗ 4 16 км 10/10 420 м +1.1 -2.2 79 -4 -4 974.0
СЗ 3 16 км 10/10 420 м +1.1 -2.2 79 -4 -4 974.0
СЗ 4 16 км 10/10 420 м +1.1 -2.2 79 -4 -4 974.0
СЗ 4 16 км 10/10 420 м +1.1 -2.2 79 -4 -4 1018.1 974.0
СЗ 4 16 км 10/10 510 м +1.1 -2.8 75 -5 -5 1018.6 974.6
СЗ 2 16 км 10/10 540 м +1.1 -2.8 75 -3 -3 1018.8 975.0
нст 1 16 км 10/10 510 м +1.1 -3.3 72 -1 -1 1018.8 974.6 +0.6 +1.1
нст 3 16 км 10/10 630 м +0.6 -3.3 75 -4 -4 1019.5 975.3
СЗ 3 16 км 10/10 480 м +0.6 -3.3 75 -4 -4 1019.5 975.3
СЗ 3 16 км 10/10 420 м +0.6 -3.3 75 -4 -4 975.6
0 16 км 8/8 390 м 0.0 -3.3 78 -1 -1 1019.9 975.6
С 2 16 км 10/10 300 м 0.0 -3.3 78 -4 -4 1020.4 976.3
0 16 км 10/10 270 м -0.6 -3.3 82 -2 -2 976.3
0 16 км 10/10 270 м -0.6 -3.3 82 -2 -2 1020.6 976.3
нст 1 16 км 8/8 330 м -0.6 -3.3 82 -4 -4 976.6
З 4 16 км 5/5 330 м -0.6 -3.9 78 -6 -6 976.6
З 4 16 км ясно -0.6 -3.9 78 -7 -7 1021.0 976.6 -1.1 +1.1 0.3
СЗ 1 16 км ясно +0.6 -3.3 75 -2 -2 1021.3 977.2
СЗ 3 16 км ясно +1.7 -3.3 69 -2 -2 1021.7 977.6
З 4 16 км ясно +2.2 -2.2 73 -3 -2 1021.7 977.6
нст 3 16 км ясно +5.0 -2.2 60 +2 +4 1020.6 976.9
З 4 16 км ясно +5.0 -1.1 65 +1 +4 1020.1 976.3
З 3 16 км ясно +5.6 -1.1 62 +3 +6 1018.8 975.3 -0.6 +5.6
СЗ 4 16 км ясно +6.1 -1.1 60 +2 +4 1018.5 975.0
З 2 16 км ясно +5.6 -1.1 62 +3 +5 1018.2 974.6
Местоположение метеостанции Pittsfield Municipal Airport: широта 42.4272 долгота -73.2892 высота над уровнем моря 364 м.
В архиве по умолчанию представлена погода в Питсфилде за последние 1-2 суток. Обновление информации о фактической погоде в базе происходит ежечасно! Архивные данные за месяц целиком и за предыдущие месяцы Вы можете получить, выбрав интересующий диапазон дат из раскрывающегося списка и нажав кнопку "Ввод!".
Внимание! Архив погоды МЕТАР в базе сайта по станциям, не включенным в климатический монитор, хранится не более 60 дней. Нет смысла пытаться выбрать более раннюю дату.
*Определитесь, кто Вы:
Внимание! Время в таблицах - всемирное. Для получения местного времени необходимо прибавить поправку, которая равна ч.
Смотрите также архив погоды в соседних городах и на ближайших метеорологических станциях:
Партнеры нашего сайта:      
Пояснения к столбцам:
  • Ветер - указаны скорость ветра в м/с - средняя за 10 мин, порывы в срок и между сроками (в фигурных скобках) и направление, откуда дует ветер: С - северный,
  • СВ - северо-восточный, В - восточный, ЮВ - юго-восточный, Ю - южный, ЮЗ - юго-западный, З - западный, СЗ - северо-западный.
  • Видимость - горизонтальная дальность видимости в метрах или километрах. При видимости от 1 до 10 км при отсутствии осадков обычно наблюдается дымка, при ухудшении видимости до 1 км и менее - туман. В сухую погоду видимость может ухудшаться дымом, пылью или мглою.
  • Явления - указаны атмосферные явления, наблюдавшиеся в срок или в последний час перед сроком; фигурными скобками обозначены явления, наблюдавшиеся между сроками (за 1-3 часа до срока); квадратными скобками обозначены град или гололедные отложения с указанием их диаметра в мм.
  • Облачность - указаны через наклонную черту общая и нижняя облачность в баллах и высота нижней границы облаков в метрах; квадратными скобками обозначены формы облаков: Ci - перистые, Cs - перисто-слоистые, Cc - перисто-кучевые, Ac - высококучевые, As - высокослоистые, Sc - слоисто-кучевые, Ns - слоисто-дождевые, Cu - кучевые, Cb - кучево-дождевые. Подробнее классификацию облаков см. в Атласе облаков (PDF).
  • T - Температура воздуха - температура, измеренная на высоте 2 м над землей.
  • Td - Температура точки росы - температура, при понижении до которой содержащийся в воздухе водяной пар достигнет насыщения.
  • f - Относительная влажность воздуха - влажноcть воздуха, измеренная на высоте 2 м над землей.
  • Te - Эффективная температура - температура, которую ощущает одетый по сезону человек в тени. Характеристика душности погоды. При расчете учитывается влияние влажности воздуха и скорости ветра на теплоощущения человека.
  • Tes - Эффективная температура на солнце - температура, которую ощущает человек, с поправкой на солнечный нагрев. Характеристика знойности погоды. Зависит от высоты солнца над горизонтом, облачности и скорости ветра. Ночью, в пасмурную погоду, а также при ветре 12 м/с и более поправка равна нулю.
  • P - Атмосферное давление - приведенное к уровню моря атмосферное давление.
  • Po - Атмосферное давление - измеренное на уровне метеостанции атмосферное давление.
  • Tmin - Минимальная температура - минимум температуры воздуха на высоте 2 м над землей.
  • Tmax - Максимальная температура - максимум температуры воздуха на высоте 2 м над землей.
  • R - Количество осадков - Количество выпавших осадков за период времени, мм. При наведении курсора мыши на число - период времени, за который выпало указанное количество осадков.
  • R24 - Количество осадков - Количество выпавших осадков за 24 часа, мм.
  • S - Снежный покров - Высота снежного покрова, см. При наведении курсора мыши на число - состояние снежного покрова и степень покрытия местности в баллах.